Notices

What's New in latest Release from April 7th, 2021:

- Updated Glossary, including Speed of Maximum Gust, and Total Hourly Precipitation

- Updated national and regional climate services offices contacts and prices information

- Addition of station inventory lists for 1981-2010, 1971-2000, and 1961-1990 Normals.

If you haven't already, please take our survey and provide feedback about our website: https://eccc.sondage-survey.ca/f/LanguageSelection.aspx?s=442ca660-fcf1-47c0-95a9-59707d6fd709

Hourly Data Report for September 16, 2017

VICTORIA UNIVERSITY CS
BRITISH COLUMBIA

48°27'25.200" N
123°18'16.600" W
60.10 m
1018598
71783
WYJ

Download Data

Hourly Data (September 2017)
Hourly Data Report for September 16, 2017
TIME
LST
Temp Definition
°C
Dew Point Definition
°C
Rel Hum Definition
%
Precip. Amount Definition
mm

Wind Dir Definition
10's deg

Wind Spd Definition
km/h
Visibility Definition
km
Stn Press Definition
kPa
Hmdx Definition


Wind Chill Definition


Weather Definition


00:00 10.9 5.6 70 0.0 24 4   100.86     LegendNANA
01:00 9.7 6.8 82 0.0 15 2   100.87     LegendNANA
02:00 9.0 7.6 91 0.0 0 1   100.89     LegendNANA
03:00 8.1 6.4 89 0.0 30 1   100.89     LegendNANA
04:00 7.8 6.9 94 0.0 4 2   100.89     LegendNANA
05:00 7.8 7.3 97 0.0 2 1   100.88     LegendNANA
06:00 8.0 7.6 98 0.0   0   100.93     LegendNANA
07:00 10.6 10.2 98 0.0 26 1   100.98     LegendNANA
08:00 12.2 10.1 87 0.0 11 3   100.98     LegendNANA
09:00 13.3 10.0 81 0.0 7 3   100.95     LegendNANA
10:00 16.3 7.2 55 0.0 10 3   100.95     LegendNANA
11:00 17.1 7.2 52 0.0 12 3   100.92     LegendNANA
12:00 18.2 4.6 41 0.0 14 3   100.87     LegendNANA
13:00 18.0 5.2 43 0.0 14 4   100.82     LegendNANA
14:00 20.2 5.0 37 0.0 11 3   100.75     LegendNANA
15:00 20.6 3.1 32 0.0 10 3   100.69     LegendNANA
16:00 19.8 7.1 44 0.0 12 1   100.63     LegendNANA
17:00 20.2 6.0 40 0.0 14 2   100.57     LegendNANA
18:00 16.7 7.2 53 0.0 21 1   100.53     LegendNANA
19:00 13.6 6.6 63 0.0 25 2   100.50     LegendNANA
20:00 13.1 6.4 64 0.0 24 5   100.48     LegendNANA
21:00 11.3 6.6 73 0.0 25 2   100.46     LegendNANA
22:00 10.6 6.8 78 0.0 0 1   100.42     LegendNANA
23:00 10.2 7.1 81 0.0 26 3   100.42     LegendNANA

Notes on Data Quality.

Legend

  • E = Estimated
  • M = Missing
  • NA = Not Available*
  • [empty] = Indicates an unobserved value
Date modified: